Regional Weather Roundup
Issued by NWS

Home | Current Version | Previous Version | Text Only | Print | Product List | Glossary On
Versions: 1 2 3 4 5 6 7 8 9 10 11 12 13 14 15 16 17 18 19 20 21 22 23 24 25 26 27 28 29 30 31 32 33 34 35 36 37 38 39 40 41 42 43 44 45 46 47 48 49 50
000
ASUS44 KJAN 021710
RWRMS

MISSISSIPPI HOURLY WEATHER ROUNDUP
NATIONAL WEATHER SERVICE JACKSON MS
1200 PM CDT TUE JUN 02 2015

NOTE: "FAIR: INDICATES FEW OR NO CLOUDS BELOW 12,000 FEET WITH NO
SIGNIFICANT WEATHER AND/OR OBSTRUCTIONS TO VISIBILITY.

MSZ001>002-007>008-010>013-018>021-025>028-034>036-021800-
NORTHWEST MISSISSIPPI

CITY           SKY/WX    TMP DP  RH WIND       PRES   REMARKS
CLARKSDALE     PTSUNNY   73  64  73 CALM      30.09S
CLEVELAND      FAIR      74  65  74 CALM      30.07F
GREENWOOD      SUNNY     77  62  59 N8        30.06F
GREENVILLE     SUNNY     76  61  59 NE5       30.07S
OXFORD         PTSUNNY   70  57  64 N7        30.10S
TUNICA         PTSUNNY   72  61  68 NE6       30.09S
$$

MSZ003>006-009-014>017-022>024-029>033-037>039-021800-
NORTHEAST MISSISSIPPI

CITY           SKY/WX    TMP DP  RH WIND       PRES   REMARKS
COLUMBUS AFB   PTSUNNY   74  63  69 NW12      30.06F
CORINTH        CLOUDY    70  59  68 VRB6      30.08S
GOLDN TRIANGLE PTSUNNY   75  63  64 NE12      30.06F
STARKVILLE     PTSUNNY   73  63  68 N6        30.06F
TUPELO         PTSUNNY   71  59  65 NE6       30.06F
$$

MSZ040-058-021800-
CENTRAL MISSISSIPPI

CITY           SKY/WX    TMP DP  RH WIND       PRES   REMARKS
JACKSON INTL   MOSUNNY   80  62  54 VRB6      30.05F
JACKSON HAWKNS MOSUNNY   79  60  52 NE8       30.06F
MERIDIAN KEY   MOSUNNY   80  64  58 VRB7      30.03F
MERIDIAN NAS   MOSUNNY   80  63  55 N13       30.04F
RAYMOND        FAIR      79  75  89 N7        30.05F
VICKSBURG      SUNNY     81  59  47 NE7       30.05F
$$

MSZ059>079-021800-
SOUTH MISSISSIPPI

CITY           SKY/WX    TMP DP  RH WIND       PRES   REMARKS
BROOKHAVEN       N/A     77  77 100 NW6       30.06F
HATTIESBURG    PTSUNNY   81  70  69 N7        30.04F
MCCOMB         MOSUNNY   81  65  58 N7        30.03F
NATCHEZ        MOSUNNY   79  66  65 NE6       30.05F
PINE BELT      PTSUNNY   79  66  65 NW6       30.05F
$$

MSZ080>082-021800-
COASTAL MISSISSIPPI

CITY           SKY/WX    TMP DP  RH WIND       PRES   REMARKS
BAY ST LOUIS   MOSUNNY   82  66  57 MISG      30.00F
BILOXI         SUNNY     83  73  69 VRB5      29.99F
PASCAGOULA     SUNNY     82  72  71 N7        29.99F
GULFPORT       PTSUNNY   85  68  56 VRB3      29.99F
$$


USA.gov is the U.S. government's official web portal to all federal, state and local government web resources and services.